Weather History for Villahermosa Airport, Mexico

Change the Weather History Date:

Wednesday, January 9, 2013

  Actual Average Record
Temperature  
Mean Temperature 78 °F -  
Max Temperature 89 °F 80 °F 89 °F (1999)
Min Temperature 66 °F 66 °F 59 °F (2002)
Cooling Degree Days 12    
Growing Degree Days 28 (Base 50)    
Moisture  
Dew Point 70 °F    
Average Humidity 78    
Maximum Humidity 100    
Minimum Humidity 52    
Precipitation  
Precipitation 0.00 in - - ()
Sea Level Pressure  
Sea Level Pressure 29.85 in    
Wind  
Wind Speed 4 mph ()    
Max Wind Speed 12 mph    
Max Gust Speed -    
Visibility 7.0 miles    
Events      
Averages and records for this station are not official NWS values.
T = Trace of Precipitation, MM = Missing Value Source: Averaged Metar Reports

Daily Weather History Graph

Daily Weather History Graph

Search for Another Location

Airport:

Trip Planner

Search our weather history database for the weather conditions in past years. The results will help you decide how hot, cold, wet, or windy it might be!

Date:

Astronomy

Jan. 09, 2013 Rise Set
Actual Time 6:44 AM CST 5:52 PM CST
Civil Twilight 6:21 AM CST 6:15 PM CST
Nautical Twilight 5:54 AM CST 6:42 PM CST
Astronomical Twilight 5:27 AM CST 7:09 PM CST
Moon 4:24 AM CST (1/9) 3:54 PM CST (1/9)
Length of Visible Light 11h 54m
Length of Day
11h 07m
Waning Crescent, 6% of the Moon is Illuminated
Jan 9
Waning Crescent
Jan 11
New
Jan 18
First Quarter
Jan 26
Full
Feb 3
Last Quarter

Hourly Weather History & Observations

Time (CST) Temp. Heat Index Dew Point Humidity Pressure Visibility Wind Dir Wind Speed Gust Speed Precip Events Conditions
4:08 AM 66.2 °F - 64.4 °F 94% 29.81 in 7.0 mi Calm Calm - N/A   Clear
4:54 AM 66.2 °F - 66.2 °F 100% 29.82 in 7.0 mi Calm Calm - N/A   Clear
5:47 AM 66.2 °F - 66.2 °F 100% 29.91 in 7.0 mi Calm Calm - N/A   Clear
6:43 AM 68.0 °F - 68.0 °F 100% 29.85 in 7.0 mi Calm Calm - N/A   Scattered Clouds
7:45 AM 69.8 °F - 69.8 °F 100% 29.88 in 7.0 mi Calm Calm - N/A   Scattered Clouds
8:51 AM 75.2 °F - 71.6 °F 89% 29.97 in 7.0 mi Calm Calm - N/A   Scattered Clouds
9:42 AM 78.8 °F - 71.6 °F 78% 29.90 in 7.0 mi ESE 9.2 mph - N/A   Scattered Clouds
10:46 AM 82.4 °F 87.2 °F 71.6 °F 70% 29.87 in 7.0 mi East 6.9 mph - N/A   Scattered Clouds
11:41 AM 84.2 °F 89.6 °F 71.6 °F 66% 29.94 in 7.0 mi East 6.9 mph - N/A   Scattered Clouds
12:43 PM 86.0 °F 91.8 °F 71.6 °F 62% 29.81 in 7.0 mi ENE 6.9 mph - N/A   Partly Cloudy
1:42 PM 87.8 °F 93.8 °F 71.6 °F 58% 29.79 in 7.0 mi ENE 9.2 mph - N/A   Partly Cloudy
2:40 PM 89.6 °F 94.7 °F 69.8 °F 52% 29.81 in 7.0 mi East 8.1 mph - N/A   Partly Cloudy
3:40 PM 89.6 °F 94.7 °F 69.8 °F 52% 29.78 in 7.0 mi East 10.4 mph - N/A   Partly Cloudy
4:40 PM 87.8 °F 93.8 °F 71.6 °F 58% 29.78 in 7.0 mi East 11.5 mph - N/A   Clear
5:40 PM 84.2 °F 89.6 °F 71.6 °F 66% 29.83 in 7.0 mi East 9.2 mph - N/A   Clear
6:40 PM 78.8 °F - 71.6 °F 78% 29.80 in 7.0 mi ENE 4.6 mph - N/A   Clear
7:40 PM 78.8 °F - 71.6 °F 78% 29.83 in 7.0 mi East 6.9 mph - N/A   Clear
8:40 PM 78.8 °F - 69.8 °F 74% 29.88 in 7.0 mi East 10.4 mph - N/A   Clear
9:40 PM 77.0 °F - 71.6 °F 83% 29.85 in 7.0 mi ENE 9.2 mph - N/A   Clear
10:40 PM 77.0 °F - 71.6 °F 83% 29.86 in 7.0 mi ENE 11.5 mph - N/A   Clear
11:40 PM 75.2 °F - 71.6 °F 89% 29.89 in 7.0 mi East 8.1 mph - N/A   Clear